North Conway, NH

12:58 PM EDT on October 20, 2017 (GMT -0400)
North Conway

Weather History for KCWN - June, 2014

Change the Weather History Date:

Monday, June 9, 2014

  Actual Average (KIZG) Record (KIZG)
Temperature  
Mean Temperature 51 °F -  
Max Temperature 61 °F 72 °F 93 °F (2004)
Min Temperature 41 °F 46 °F 39 °F (1997)
Degree Days  
Heating Degree Days 14    
Growing Degree Days 1 (Base 50)    
Moisture  
Dew Point 33 °F    
Average Humidity 57    
Maximum Humidity 93    
Minimum Humidity 28    
Precipitation  
Precipitation 0.00 in - - ()
Sea Level Pressure  
Sea Level Pressure 30.04 in    
Wind  
Wind Speed 16 mph (NNW)    
Max Wind Speed 25 mph    
Max Gust Speed 37 mph    
Averages and records for this station are not official NWS values.
T = Trace of Precipitation, MM = Missing Value Source: NWS Daily Summary

Daily Weather History Graph

Daily Weather History Graph

Search for Another Location

Airport or City:

Trip Planner

Search our weather history database for the weather conditions in past years. The results will help you decide how hot, cold, wet, or windy it might be!

Date:

Astronomy

Jun. 09, 2014 Rise Set
Actual Time 5:01 AM EDT 8:26 PM EDT
Civil Twilight 4:25 AM EDT 9:02 PM EDT
Nautical Twilight 3:38 AM EDT 9:49 PM EDT
Astronomical Twilight 2:39 AM EDT 10:49 PM EDT
Moon 4:37 PM EDT (6/9) 2:35 AM EDT (6/9)
Length of Visible Light 16h 36m
Length of Day
15h 24m
Waxing Gibbous, 85% of the Moon is Illuminated
Jun 9
Waxing Gibbous
Jun 13
Full
Jun 19
Last Quarter
Jun 27
New
Jul 5
First Quarter

Hourly Weather History & Observations

Time (EDT) Temp. Windchill Dew Point Humidity Pressure Visibility Wind Dir Wind Speed Gust Speed Precip Events Conditions
12:56 AM 43.3 °F 36.1 °F 38.8 °F 84% 29.99 in - NW 15.0 mph 29.9 mph N/A   Scattered Clouds
1:51 AM 42.8 °F 35.4 °F 41.0 °F 93% 30.11 in - NNW 15.0 mph 27.6 mph N/A   Mostly Cloudy
1:56 AM 43.0 °F 35.7 °F 40.3 °F 90% 30.00 in - NNW 15.0 mph 27.6 mph N/A   Mostly Cloudy
2:11 AM 42.8 °F 35.4 °F 41.0 °F 93% 30.12 in - NNW 15.0 mph 25.3 mph N/A   Mostly Cloudy
2:31 AM 42.8 °F 35.1 °F 39.2 °F 87% 30.13 in - NNW 16.1 mph 29.9 mph N/A   Mostly Cloudy
2:56 AM 43.7 °F 36.3 °F 39.0 °F 84% 30.00 in - North 16.1 mph 25.3 mph N/A   Mostly Cloudy
3:06 AM 42.8 °F 35.1 °F 39.2 °F 87% 30.13 in - NNW 16.1 mph 26.5 mph N/A   Mostly Cloudy
3:56 AM 43.5 °F 37.5 °F 36.9 °F 77% 30.01 in - North 11.5 mph 24.2 mph N/A   Mostly Cloudy
4:46 AM 44.6 °F 37.4 °F 35.6 °F 71% 30.11 in - NW 16.1 mph 29.9 mph N/A   Mostly Cloudy
4:56 AM 43.7 °F 36.0 °F 35.1 °F 72% 30.00 in - NNW 17.3 mph 23.0 mph N/A   Mostly Cloudy
5:56 AM 42.6 °F 34.9 °F 33.8 °F 71% 30.03 in - NNW 16.1 mph 25.3 mph N/A   Scattered Clouds
6:56 AM 41.7 °F 33.1 °F 32.2 °F 69% 30.04 in - North 18.4 mph 27.6 mph N/A   Clear
7:56 AM 41.0 °F 34.3 °F 30.6 °F 66% 30.05 in - North 11.5 mph - N/A   Clear
8:56 AM 43.7 °F 35.4 °F 30.2 °F 59% 30.07 in - North 19.6 mph 27.6 mph N/A   Clear
9:56 AM 47.5 °F - 29.7 °F 50% 30.06 in - North 20.7 mph 35.7 mph N/A   Clear
11:56 AM 52.5 °F - 20.3 °F 28% 30.05 in - North 25.3 mph 36.8 mph N/A   Clear
12:56 PM 54.1 °F - 25.3 °F 33% 30.07 in - NNE 16.1 mph 33.4 mph N/A   Clear
1:56 PM 56.1 °F - 25.2 °F 30% 30.05 in - North 21.9 mph 28.8 mph N/A   Clear
2:56 PM 57.4 °F - 25.5 °F 29% 30.04 in - North 16.1 mph 28.8 mph N/A   Clear
3:56 PM 59.7 °F - 27.0 °F 29% 30.01 in - North 18.4 mph 31.1 mph N/A   Clear
4:56 PM 60.1 °F - 29.7 °F 32% 30.00 in - NNE 17.3 mph 29.9 mph N/A   Clear
5:56 PM 61.0 °F - 30.2 °F 31% 29.99 in - North 12.7 mph 20.7 mph N/A   Clear
6:56 PM 61.5 °F - 31.3 °F 32% 29.98 in - NNE 13.8 mph 23.0 mph N/A   Clear
7:56 PM 61.5 °F - 31.1 °F 32% 30.00 in - NNW 9.2 mph 15.0 mph N/A   Clear
8:56 PM 59.2 °F - 32.0 °F 36% 30.00 in - NW 10.4 mph - N/A   Clear
9:56 PM 57.0 °F - 31.5 °F 38% 30.01 in - SSW 10.4 mph 12.7 mph N/A   Clear
10:56 PM 54.5 °F - 30.9 °F 41% 30.01 in - South 9.2 mph - N/A   Clear
11:56 PM 54.1 °F - 30.2 °F 40% 30.02 in - South 13.8 mph - N/A   Clear